Flag for France Weather past 2 weeks in Marseille, France

Now
77 °F

Sunny.


Feels Like: 78 °F
Forecast: 56 / 73 °F
Wind: 6 mph from West

Location: Marseille / Marignane

Current Time: May 28, 2015 at 2:28:02 PM

Latest Report: May 28, 2015 at 2:00 PM


Visibility: 10 mi

Pressure: 30.04 "Hg

Humidity: 32%

Dew point: 45 °F

Location of MarseilleLocation

Historic Weather in Marseille — Graph

°F

Marseille temperature yesterday

Maximum temperature yesterday: 77 °F (at 4:30 PM)
Minimum temperature yesterday: 55 °F (at 6:30 AM)
Average temperature yesterday: 67 °F

Past Weeks' High & Low Weather Summary

 TemperatureHumidityPressure
High81 °F (May 14, 2:30 PM)94% (May 14, 5:30 AM)30.18 "Hg (May 14, 5:30 AM)
Low48 °F (May 23, 6:00 AM)24% (May 20, 5:30 PM)29.74 "Hg (May 14, 7:00 PM)
Average66 °F51%29.94 "Hg
* Reported May 13 1:00 PM — May 28 1:30 PM, Marseille, Weather by CustomWeather, © 2015

Note: Actual official high and low records may vary slightly from our data, if they occured in-between our weather recording intervals... More about our weather records

Advertising

Marseille weather history for previous 24 hours

 ConditionsComfort  
Time TempWeatherWind HumidityBarometerVisibility
1:30 PM
Thu, May 28
75 °FSunny.6 mph36%30.04 "Hg10 mi
1:00 PM75 °FPassing clouds.5 mph36%30.04 "HgN/A
12:30 PM73 °FPassing clouds.6 mph38%30.04 "HgN/A
12:00 PM73 °FSunny.8 mph38%30.04 "Hg10 mi
11:30 AM72 °FSunny.9 mph44%30.07 "Hg10 mi
11:00 AM70 °FSunny.9 mph43%30.07 "Hg10 mi
10:30 AM70 °FSunny.8 mph46%30.04 "Hg10 mi
10:00 AM68 °FPassing clouds.6 mph46%30.04 "HgN/A
9:30 AM64 °FPassing clouds.3 mph56%30.04 "HgN/A
9:00 AM63 °FSunny.3 mph59%30.04 "Hg10 mi
8:30 AM63 °FSunny.5 mph59%30.04 "Hg10 mi
8:00 AM59 °FSunny.2 mph63%30.04 "Hg10 mi
7:30 AM57 °FSunny.No wind67%30.04 "Hg10 mi
7:00 AM55 °FClear.3 mph72%30.04 "Hg10 mi
6:30 AM52 °FClear.3 mph77%30.04 "Hg10 mi
6:00 AM50 °FPassing clouds.5 mph82%30.01 "HgN/A
5:30 AM52 °FClear.5 mph72%30.01 "Hg10 mi
5:00 AM50 °FClear.3 mph76%30.01 "Hg10 mi
4:30 AM52 °FClear.6 mph72%30.01 "Hg10 mi
4:00 AM52 °FClear.3 mph72%30.01 "Hg10 mi
3:30 AM54 °FClear.2 mph67%30.01 "Hg10 mi
3:00 AM54 °FPassing clouds.6 mph67%30.01 "HgN/A
2:30 AM54 °FClear.5 mph67%30.01 "Hg10 mi
2:00 AM55 °FClear.3 mph63%30.01 "Hg10 mi
1:00 AM57 °FPassing clouds.5 mph59%30.01 "HgN/A
12:30 AM63 °FClear.8 mph49%30.01 "Hg10 mi
12:00 AM63 °FClear.8 mph49%30.01 "Hg10 mi
11:30 PM
Wed, May 27
64 °FClear.9 mph46%30.01 "Hg10 mi
11:00 PM66 °FClear.9 mph43%30.01 "Hg10 mi
10:30 PM68 °FClear.8 mph40%30.01 "Hg10 mi
10:00 PM68 °FPassing clouds.7 mph38%30.01 "HgN/A
9:30 PM70 °FSunny.12 mph38%29.98 "Hg10 mi
9:00 PM72 °FSunny.15 mph36%29.98 "Hg10 mi
8:30 PM73 °FSunny.13 mph36%29.98 "Hg10 mi
8:00 PM73 °FSunny.18 mph33%29.98 "Hg10 mi
7:30 PM75 °FSunny.16 mph31%29.95 "Hg10 mi
7:00 PM75 °FSunny.16 mph29%29.95 "Hg10 mi
6:30 PM77 °FPassing clouds.13 mph32%29.98 "HgN/A
6:00 PM77 °FSunny.13 mph28%29.98 "Hg10 mi
5:30 PM77 °FSunny.13 mph30%29.98 "Hg10 mi
5:00 PM77 °FSunny.13 mph30%29.98 "Hg10 mi
4:30 PM77 °FSunny.12 mph30%29.98 "Hg10 mi
3:30 PM75 °FPassing clouds.12 mph34%29.98 "HgN/A
3:00 PM75 °FPassing clouds.13 mph31%29.98 "HgN/A
2:30 PM75 °FPassing clouds.14 mph31%29.98 "HgN/A
2:00 PM75 °FPassing clouds.12 mph31%29.98 "HgN/A
Weather by CustomWeather, © 2015

See weather overviewHow to use our weather pages